Date,TemperatureHighF,TemperatureAvgF,TemperatureLowF,DewpointHighF,DewpointAvgF,DewpointLowF,HumidityHigh,HumidityAvg,HumidityLow,PressureMaxIn,PressureMinIn,WindSpeedMaxMPH,WindSpeedAvgMPH,GustSpeedMaxMPH,PrecipitationSumIn
2013-11-1,49,47,43,-100,-100,-100,0,0,100,0.00,40.00,13,4,19,0.02
2013-11-2,51,44,39,-100,-100,-100,0,0,100,0.00,40.00,10,6,20,0.01
2013-11-3,55,43,32,-100,-100,-100,0,0,100,0.00,40.00,15,6,23,0.01
2013-11-4,57,50,46,-100,-100,-100,0,0,100,0.00,40.00,14,6,23,0.00
2013-11-5,56,52,49,-100,-100,-100,0,0,100,0.00,40.00,15,6,23,0.23
2013-11-6,57,46,37,-100,-100,-100,0,0,100,0.00,40.00,13,6,28,0.50
2013-11-7,46,37,28,-100,-100,-100,0,0,100,0.00,40.00,11,3,17,0.01
2013-11-8,51,41,26,-100,-100,-100,0,0,100,0.00,40.00,16,6,25,0.00
2013-11-9,56,49,44,-100,-100,-100,0,0,100,0.00,40.00,18,7,22,0.00
2013-11-10,47,41,34,-100,-100,-100,0,0,100,0.00,40.00,8,3,14,0.00
2013-11-11,50,38,24,-100,-100,-100,0,0,100,0.00,40.00,16,8,23,0.00
2013-11-12,31,24,18,-100,-100,-100,0,0,100,0.00,40.00,12,6,17,0.00
2013-11-13,45,30,18,-100,-100,-100,0,0,100,0.00,40.00,10,4,14,0.00
2013-11-14,53,42,33,-100,-100,-100,0,0,100,0.00,40.00,9,5,14,0.00
2013-11-15,56,44,33,-100,-100,-100,0,0,100,0.00,40.00,14,5,17,0.00
2013-11-16,63,53,41,-100,-100,-100,0,0,100,0.00,40.00,20,12,25,0.00
2013-11-17,69,54,44,-100,-100,-100,0,0,100,0.00,40.00,24,9,35,0.32
2013-11-18,45,40,33,-100,-100,-100,0,0,100,0.00,40.00,13,7,24,0.01
2013-11-19,48,39,30,-100,-100,-100,0,0,100,0.00,40.00,12,7,17,0.00
2013-11-20,40,38,37,-100,-100,-100,0,0,100,0.00,40.00,12,8,17,0.38
2013-11-21,42,41,39,-100,-100,-100,0,0,100,0.00,40.00,10,5,14,0.01
2013-11-22,39,32,24,-100,-100,-100,0,0,100,0.00,40.00,13,8,19,0.02
2013-11-23,24,20,15,-100,-100,-100,0,0,100,0.00,40.00,15,10,24,0.00
2013-11-24,30,19,10,-100,-100,-100,0,0,100,0.00,40.00,9,5,12,0.00
2013-11-25,37,31,22,-100,-100,-100,0,0,100,0.00,40.00,8,5,13,0.00
2013-11-26,35,28,20,-100,-100,-100,0,0,100,0.00,40.00,16,8,25,0.00
2013-11-27,28,20,13,-100,-100,-100,0,0,100,0.00,40.00,10,5,14,0.00
2013-11-28,34,26,20,-100,-100,-100,0,0,100,0.00,40.00,9,4,14,0.00
2013-11-29,37,26,13,-100,-100,-100,0,0,100,0.00,40.00,12,5,17,0.00
2013-11-30,51,37,29,-100,-100,-100,0,0,100,0.00,40.00,7,3,10,0.00